Location: Erfurt
(50.9688°N, 11.0193°E)
Time: 17:52:47
(UTC+01:00)

ISS - Pass Details

Date: 13 November 2017
Orbit: 402 x 407 km, 51.6° (Epoch: 24 November)

Event Time Altitude Azimuth Distance (km) Brightness Sun altitude
Exits shadow 05:02:31 43° 115° (ESE) 575 -2.7 -22.9°
Drops below altitude 10° 05:04:51 10° 108° (ESE) 1,455 0.0 -22.5°
Sets 05:06:55 0° 107° (ESE) 2,312 1.3 -22.2°
